Theta_e
335 334 329 323 310 309 305 307 314 312 314 319 321 318 317 319 317 314 336 338 343 341 344 346 346 346 343 342 342 341 341 343 344 343 343 342 340 339 340 339 340 338 337 336 335 336 336 335 335
332 328 326 320 306 300 304 312 309 313 318 319 320 320 318 317 327 329 333 339 342 342 343 345 343 345 341 341 342 341 343 342 342 341 341 340 337 337 337 338 337 338 336 335 335 335 336 335 334
331 326 320 314 307 298 302 310 313 316 319 319 318 322 320 319 328 331 339 339 341 342 343 343 342 344 342 341 341 341 343 343 341 340 339 338 336 335 336 335 336 336 335 335 334 335 335 335 334
328 325 319 309 304 303 304 311 314 316 318 319 320 316 323 330 330 336 340 339 339 342 343 341 343 343 341 341 341 341 340 344 343 341 338 337 336 337 334 334 334 335 335 334 333 335 335 335 334
328 324 311 308 305 306 308 313 315 314 315 316 318 314 317 329 336 339 340 339 339 340 342 342 342 343 343 341 340 340 340 343 344 343 342 339 337 336 334 332 333 333 333 334 331 333 333 334 334
320 322 309 306 307 308 309 313 313 313 314 315 315 314 319 333 334 338 340 339 340 341 342 341 337 339 341 341 341 340 341 338 343 343 342 341 339 337 336 334 331 331 332 332 332 332 331 334 335
316 315 310 308 307 307 309 315 311 311 311 313 317 311 322 328 335 339 340 340 340 341 341 340 340 338 335 338 338 340 338 337 339 340 341 340 338 338 337 336 334 333 333 331 331 331 330 330 331
319 315 310 309 307 307 312 313 313 311 309 319 320 309 313 327 337 339 339 339 339 339 341 339 339 339 337 338 333 335 336 335 336 334 334 334 333 332 333 332 332 333 332 332 330 329 328 328 328
320 311 308 309 308 310 313 311 314 316 313 316 319 319 325 332 336 336 335 336 337 337 340 339 338 339 338 337 332 330 332 332 332 330 327 327 333 333 331 329 332 335 334 332 331 329 328 328 327
314 311 310 314 315 311 313 313 313 312 312 314 317 324 328 332 332 331 331 331 333 332 335 338 340 339 338 336 336 333 334 336 335 335 334 334 333 333 331 327 326 329 329 333 333 332 331 326 325
311 308 315 313 315 315 313 313 316 313 311 314 315 320 325 329 330 330 331 332 333 335 334 335 337 339 338 337 337 336 335 333 333 332 334 334 332 333 332 331 329 330 323 329 329 329 329 330 329
305 310 311 314 315 314 312 315 313 314 316 319 320 321 325 326 327 328 330 331 332 333 335 334 335 336 338 338 337 337 336 336 334 333 333 333 332 332 331 330 330 331 329 328 329 328 330 329 329
305 306 309 312 314 314 314 312 313 314 318 319 319 322 324 325 327 329 330 332 333 332 334 335 334 335 335 336 336 336 336 336 335 335 334 331 330 331 329 329 328 328 328 327 326 326 326 326 326
305 306 307 310 310 314 312 313 312 315 319 318 318 319 323 324 326 327 329 330 331 332 334 336 334 334 334 334 334 334 334 335 335 335 335 334 332 332 329 328 328 328 328 327 327 325 325 326 327
306 301 304 306 307 308 313 308 310 316 317 316 316 319 320 323 326 324 327 329 331 333 334 334 334 333 332 332 333 333 334 331 334 332 333 334 334 332 331 330 330 330 330 329 328 327 327 326 326
301 301 296 302 305 308 309 298 307 316 317 315 316 317 319 321 325 326 326 328 330 332 332 334 334 334 333 332 333 335 335 333 333 333 333 332 330 332 332 331 331 331 331 330 328 327 326 326 326
300 293 295 298 305 304 305 298 305 309 310 313 317 318 318 319 322 326 328 328 329 330 331 332 335 334 335 335 336 336 335 334 333 332 333 332 331 329 331 332 332 332 331 330 329 328 327 326 326
293 294 296 296 299 301 301 301 304 305 307 307 309 314 317 319 319 323 327 329 330 331 332 332 333 334 334 336 336 336 335 335 335 334 333 332 331 329 326 331 332 333 330 329 329 328 329 326 325
297 296 295 299 302 298 299 299 301 305 306 306 307 307 308 312 318 323 324 327 330 330 330 331 331 332 333 333 333 333 332 334 334 335 334 333 332 330 327 329 332 332 328 328 328 327 325 324 324
296 294 294 298 299 297 298 298 301 303 304 305 306 308 308 309 310 313 316 322 323 325 330 331 331 332 332 332 333 333 333 333 333 334 334 334 334 332 328 328 329 329 328 327 326 325 322 321 323
296 293 292 292 296 298 296 293 296 300 303 305 306 308 308 309 310 311 313 315 318 320 322 326 329 331 332 332 331 331 332 332 331 332 332 333 333 331 328 330 332 329 327 325 326 324 322 318 322
290 297 296 294 292 287 295 285 293 297 298 301 303 305 306 308 309 310 312 313 315 318 321 321 322 326 329 332 330 328 327 325 328 330 332 333 333 332 331 332 332 331 329 325 327 325 323 320 318
293 298 296 296 293 291 291 288 291 296 294 297 300 303 305 307 308 308 310 312 314 319 322 321 320 320 324 327 328 328 327 328 329 329 331 331 332 332 332 331 331 331 329 328 326 325 323 322 320
299 296 296 295 292 284 289 288 288 293 295 297 300 302 303 305 307 308 310 312 313 316 317 318 318 318 320 324 327 326 326 326 327 328 327 328 329 329 330 330 329 329 329 328 327 325 323 322 321
297 292 284 283 283 281 289 288 290 296 297 298 298 300 303 304 305 306 306 307 309 311 314 316 317 315 317 321 324 326 326 327 326 327 326 326 325 325 326 327 327 327 328 328 327 325 323 321 317
293 291 284 277 279 282 288 283 289 297 300 300 301 301 303 303 304 305 306 308 309 310 311 312 314 315 316 318 322 323 325 326 326 326 326 326 326 326 327 327 327 326 323 322 321 320 319 319 319
292 288 294 286 283 281 285 289 295 297 297 298 299 300 301 302 304 304 306 307 308 310 310 311 312 314 315 315 318 321 323 324 324 325 326 326 327 325 323 320 315 314 313 313 312 313 313 314 314
295 297 286 287 278 277 283 285 287 292 294 296 298 299 301 303 303 303 304 307 310 310 310 311 313 314 316 316 319 320 322 323 324 324 323 322 318 313 312 311 311 309 308 307 306 307 307 305 307
291 289 290 291 287 281 280 285 294 294 295 296 297 299 301 302 302 303 304 307 307 308 309 310 311 313 316 318 319 319 320 321 320 317 316 314 311 309 308 307 306 304 303 302 302 302 302 301 302
295 292 291 285 284 287 285 286 296 297 297 297 298 300 301 301 302 304 304 306 305 305 306 308 309 309 311 313 313 314 314 313 313 312 311 310 308 307 305 304 302 301 300 300 299 299 297 298 298
Wind_Speed
15 9 6 5 6 4 1 6 5 7 7 5 3 3 8 7 10 6 10 6 16 15 15 14 13 13 12 10 10 10 9 9 10 11 11 13 10 9 11 10 9 10 11 11 10 11 11 11 10
11 3 5 4 6 5 6 7 7 7 8 5 4 4 5 7 7 9 12 9 15 16 14 14 11 12 12 10 9 7 10 9 9 9 9 9 8 9 8 7 8 9 9 10 9 9 9 9 9
8 6 7 4 3 3 1 7 9 8 6 6 4 2 4 5 5 13 14 15 15 15 11 13 11 11 10 8 8 7 7 11 10 8 7 8 7 6 8 6 5 6 7 8 8 7 7 8 7
5 5 5 9 3 3 2 7 7 10 4 2 0 4 5 5 8 8 15 16 14 15 9 13 11 11 10 9 8 6 6 10 11 12 8 7 7 7 5 6 5 4 5 6 6 6 4 6 5
6 5 7 3 2 4 2 4 5 7 6 6 4 3 3 6 8 12 16 14 14 13 10 13 11 10 10 10 9 6 4 7 9 11 11 10 8 6 6 5 5 4 3 5 4 4 3 1 4
6 3 7 6 4 4 4 5 6 8 5 5 4 4 6 10 11 13 15 15 12 14 10 11 10 10 9 9 8 7 6 9 8 9 8 11 10 9 6 5 4 4 3 2 3 2 3 3 3
6 7 4 4 4 5 5 7 7 7 6 6 2 5 7 10 12 13 15 14 14 12 8 8 11 10 7 8 8 7 8 8 3 2 11 9 10 8 7 5 4 4 4 3 2 2 1 1 1
6 5 4 4 6 3 8 9 4 6 5 5 1 3 6 11 14 14 14 14 12 10 12 10 11 11 10 10 7 6 5 8 5 5 5 5 8 6 5 7 6 6 4 4 3 3 3 3 3
4 6 7 3 5 3 9 10 5 1 3 6 6 2 5 17 14 14 13 13 13 10 13 11 10 11 11 10 9 7 7 7 7 6 6 7 6 9 9 5 7 5 8 6 5 5 4 4 6
6 8 9 4 3 2 9 10 10 7 10 9 9 8 7 14 14 15 14 14 14 14 11 10 12 11 10 8 11 10 10 9 9 9 8 8 7 5 3 3 4 4 2 7 8 7 6 6 7
4 11 12 7 4 2 5 9 5 9 9 10 11 15 13 14 15 15 16 16 15 15 12 12 10 11 11 9 7 6 6 6 6 10 9 8 6 5 5 5 5 6 8 7 8 8 7 9 5
9 11 10 6 1 3 6 4 8 13 9 5 6 4 16 16 16 17 17 16 16 15 15 13 11 9 10 8 8 7 7 7 6 8 10 6 5 6 6 5 6 5 4 6 5 4 6 7 7
10 13 7 6 5 7 2 9 12 12 13 5 2 5 14 14 16 16 15 14 14 15 15 15 12 10 9 8 6 8 8 7 8 8 9 8 7 6 6 6 6 5 6 5 6 6 6 7 8
3 8 10 6 9 6 7 11 3 11 13 12 8 10 11 14 15 15 17 16 16 15 15 15 15 12 11 9 10 7 7 7 7 7 8 11 8 6 7 7 7 6 6 6 6 6 6 6 7
4 8 7 11 10 10 7 14 15 14 2 12 14 11 11 12 13 16 17 17 17 15 15 16 16 15 14 13 10 9 9 9 9 8 10 10 10 10 9 7 7 7 6 7 7 7 7 7 7
6 6 13 8 11 6 8 19 17 16 15 14 14 13 12 12 14 14 14 15 15 15 17 17 14 17 17 12 10 10 10 10 10 9 10 13 11 11 10 8 7 7 6 7 7 7 7 7 7
9 12 16 13 10 9 14 13 14 10 12 18 17 14 14 13 14 14 15 14 14 15 15 16 17 17 18 17 13 13 13 10 9 10 9 11 12 13 11 8 7 8 7 7 7 7 7 7 7
13 14 17 13 4 11 15 17 14 3 9 16 16 17 18 16 16 14 15 15 14 14 15 15 13 16 16 12 12 10 10 10 10 9 9 12 11 12 10 9 9 7 7 7 6 8 7 6 4
13 13 15 13 1 5 15 18 20 16 19 18 16 16 18 18 16 14 13 13 15 15 15 17 17 17 13 11 11 10 11 9 9 10 12 12 12 12 11 9 9 8 8 8 8 6 5 3 2
18 15 15 12 1 5 13 19 18 18 18 20 21 20 20 17 15 15 18 16 16 16 16 16 17 17 15 11 10 10 10 10 10 9 10 13 12 12 10 10 8 10 7 9 8 4 2 2 3
16 18 14 13 3 12 13 23 23 22 25 22 21 20 20 20 20 18 17 16 15 17 17 16 16 16 15 15 9 8 8 8 9 10 10 12 13 11 13 13 10 10 8 7 7 6 7 4 5
16 14 13 13 7 9 2 12 15 9 8 17 14 17 20 21 20 19 17 18 18 17 14 15 15 16 14 16 12 14 11 11 10 9 9 9 12 13 13 13 10 9 6 6 7 6 6 6 7
8 1 6 11 13 12 18 12 6 11 14 13 14 18 18 17 18 18 18 17 14 7 7 9 11 13 13 13 14 11 13 9 8 8 9 9 8 10 11 11 10 9 7 9 9 8 7 5 6
3 5 3 4 6 10 15 15 15 16 17 14 16 17 15 15 13 12 12 10 10 8 10 10 12 13 12 13 15 16 15 13 8 7 6 6 6 7 10 10 9 9 8 7 7 6 5 4 5
13 11 4 6 6 11 3 14 22 6 10 7 10 10 10 9 8 10 10 9 9 11 11 11 14 15 15 15 15 16 15 13 12 9 7 8 7 7 9 10 9 7 7 6 5 5 6 6 6
18 16 7 8 7 7 2 13 10 4 9 11 12 10 9 8 9 11 11 8 8 8 9 11 12 13 12 12 13 12 13 8 8 9 8 7 7 7 9 9 8 8 6 5 4 3 3 3 4
10 16 17 8 2 5 9 13 15 9 10 13 13 10 9 10 10 10 10 9 7 7 7 8 9 8 10 10 9 10 10 10 8 9 7 6 6 5 7 7 6 6 5 4 4 2 2 2 3
15 7 9 8 8 10 13 17 13 7 9 12 14 12 10 6 7 6 7 6 5 5 5 5 6 7 7 6 7 7 7 7 6 6 7 7 6 8 8 7 7 7 6 5 4 3 3 3 2
12 5 8 8 12 10 12 10 7 8 8 8 9 6 7 4 5 4 4 3 3 3 2 2 3 4 5 6 6 7 7 7 6 6 7 7 7 8 8 8 7 7 7 6 5 5 4 4 4
21 18 14 8 13 11 16 17 7 4 5 4 3 4 5 5 4 3 4 4 3 2 2 3 2 2 2 3 4 6 7 7 7 7 8 8 8 7 7 7 7 6 6 6 6 6 5 5 5
Wind_Direction
301 204 235 243 250 240 114 157 92 135 147 81 105 286 11 9 2 35 146 122 135 136 135 152 132 127 123 122 124 121 114 112 95 90 99 93 92 93 87 86 87 95 92 87 90 89 85 79 77
308 233 225 264 261 255 136 125 185 160 80 126 150 221 257 83 68 122 142 164 149 134 149 142 132 128 127 138 139 137 130 125 112 103 102 104 106 107 98 92 107 105 102 93 89 98 91 87 82
272 247 254 246 278 326 60 182 158 114 137 172 164 280 16 71 91 144 118 155 149 134 153 130 134 131 140 144 146 163 145 139 129 121 121 119 116 113 105 91 78 113 106 93 88 88 106 98 94
304 199 223 248 41 66 354 179 131 151 149 207 56 178 120 41 135 131 142 155 153 146 145 137 140 150 153 151 159 163 172 155 155 137 146 126 126 108 109 111 94 76 111 104 90 75 79 114 103
223 249 257 247 102 102 131 111 174 181 182 176 202 161 92 132 118 134 152 161 155 145 134 153 150 151 153 157 163 168 194 153 159 153 155 147 142 138 140 142 122 110 97 119 117 88 72 114 127
276 271 245 234 113 126 140 163 189 200 184 123 214 246 99 125 154 151 158 161 163 153 143 147 148 149 155 160 163 174 208 171 141 178 173 153 154 148 147 149 153 156 136 130 151 128 71 45 157
319 298 330 303 133 165 150 169 188 195 186 196 349 240 90 159 157 157 163 156 169 132 142 172 166 161 158 162 166 181 188 176 154 116 171 171 143 148 155 160 162 160 164 175 180 184 181 136 83
298 277 252 221 203 150 149 175 206 205 199 85 239 215 177 157 149 162 168 162 147 168 169 183 170 171 172 171 174 174 153 142 129 108 113 161 138 161 168 171 191 182 190 191 194 210 230 235 229
290 267 257 247 225 138 157 190 179 88 228 205 172 317 52 131 157 166 171 172 172 188 185 181 180 179 176 173 173 182 178 165 154 154 150 172 201 182 167 142 154 215 189 198 205 218 228 241 244
257 258 268 336 300 235 177 211 167 197 203 209 188 136 144 149 171 178 184 187 188 182 194 190 197 189 183 184 164 194 187 198 200 199 186 218 219 214 226 153 172 221 236 210 208 218 211 229 255
231 252 264 244 267 241 215 215 206 216 221 226 208 179 171 175 184 181 197 197 198 193 191 196 206 201 191 191 185 198 191 203 206 211 211 213 217 203 213 217 202 226 210 236 203 212 226 236 259
254 250 274 294 254 229 223 244 214 231 232 37 230 202 173 184 196 199 203 202 195 198 193 199 200 209 215 200 201 204 201 201 206 208 208 211 217 222 228 222 224 215 226 230 246 251 255 264 258
241 262 265 254 262 247 283 229 236 235 242 155 176 194 183 195 194 207 208 209 203 202 198 193 200 201 206 217 212 209 226 202 215 212 206 213 216 215 220 225 228 227 224 230 239 239 245 249 253
22 271 253 254 245 244 245 238 188 238 236 224 202 205 202 210 202 196 202 207 212 207 204 198 193 202 202 205 212 225 216 232 227 236 216 210 225 219 224 226 226 232 229 236 237 246 246 246 251
266 264 228 239 233 245 255 250 228 246 207 235 219 223 217 212 210 210 202 207 203 204 206 203 192 204 208 208 210 216 216 220 220 220 233 239 216 231 229 231 230 229 230 232 245 245 250 258 260
232 245 243 225 202 214 205 255 238 229 243 240 236 223 215 220 218 216 213 210 212 206 204 201 195 195 205 209 206 216 225 206 230 225 219 213 226 239 230 228 232 233 229 230 234 240 247 252 261
215 248 228 239 198 230 212 253 243 236 240 250 243 236 229 224 223 218 214 215 213 212 207 208 203 205 200 200 207 217 219 220 217 214 225 219 212 219 234 233 230 230 229 235 238 244 251 263 270
234 232 247 223 168 237 240 247 255 215 266 258 253 248 244 229 234 224 220 218 213 216 214 210 208 210 209 206 207 211 215 221 222 218 217 218 214 214 216 234 233 227 234 239 241 248 257 264 277
285 279 249 237 185 275 248 251 256 254 253 249 252 257 254 247 244 243 233 230 223 219 216 213 209 209 206 204 207 210 215 215 220 218 219 217 216 209 214 226 238 226 227 227 241 243 245 262 266
244 254 249 258 294 263 273 268 265 254 254 252 252 248 250 250 245 244 239 233 228 226 222 220 217 210 207 203 206 212 215 210 221 224 225 220 215 206 210 216 224 229 229 234 237 211 207 230 202
238 240 249 251 277 258 276 276 259 248 245 246 248 250 251 252 251 241 227 226 227 224 225 216 218 215 209 209 204 210 223 220 210 213 213 213 214 206 211 217 214 216 201 229 222 195 198 226 227
242 226 253 271 263 260 88 286 278 271 267 228 236 247 247 240 242 244 241 236 230 222 221 223 219 216 212 201 206 205 207 211 214 211 209 205 202 204 204 216 212 218 200 209 228 197 197 203 241
252 107 227 241 251 276 258 262 264 244 255 254 234 235 242 243 241 246 247 244 255 271 229 216 224 226 214 209 204 210 219 225 227 211 193 195 194 204 208 204 204 205 210 197 216 225 216 216 239
155 162 176 226 246 250 243 241 260 246 247 240 244 252 250 248 254 257 264 270 262 247 241 225 223 226 220 211 207 212 214 221 222 210 182 189 191 194 204 198 202 204 209 212 221 213 219 219 225
191 182 186 215 199 249 235 224 247 278 288 263 264 273 271 253 249 250 256 246 236 245 242 234 231 226 209 206 207 210 214 219 222 209 193 192 189 187 192 192 196 199 208 204 207 210 217 221 240
203 209 206 229 225 267 159 233 248 344 297 289 259 253 256 257 269 262 256 253 249 256 252 241 232 236 223 210 212 212 213 216 215 207 200 201 191 188 183 185 188 192 180 186 181 209 221 225 230
184 224 231 291 192 263 245 252 271 248 233 249 259 270 265 263 271 276 260 247 264 271 258 248 243 229 242 224 222 220 211 210 210 207 199 193 185 165 161 164 160 154 167 172 178 187 209 251 268
229 208 202 215 230 238 245 258 266 249 238 251 254 263 271 261 273 276 268 279 301 287 265 227 235 235 229 215 206 207 203 200 201 186 178 168 159 154 160 158 158 158 155 154 164 153 184 216 232
210 216 232 243 231 244 269 258 24 38 2 311 308 345 306 295 300 305 269 273 286 284 269 258 215 191 188 189 187 187 185 189 176 176 172 165 151 161 162 162 160 162 160 161 166 170 191 207 224
225 213 197 213 209 232 258 257 159 102 60 17 41 354 338 317 295 315 317 318 287 269 267 249 216 210 177 171 174 176 168 173 177 178 170 163 166 166 163 162 166 165 165 168 179 187 195 211 220